Location: Helion Bumpstead
(52.0500°N, 0.4000°E)
Time: 22:19:30
(UTC+00:00)

Cosmos 1725 Rocket - Pass Details

Date: 14 February 2026
Orbit: 962 x 989 km, 82.9° (Epoch: 11 March)

Event Time Altitude Azimuth Distance (km) Brightness Sun altitude
Rises 18:01:38 0° 347° (NNW) 3,678 7.1 -8.4°
Reaches altitude 10° 18:04:12 10° 343° (NNW) 2,730 6.5 -8.8°
Maximum altitude 18:10:13 53° 268° (W) 1,191 5.0 -9.7°
Drops below altitude 10° 18:16:16 10° 194° (SSW) 2,731 6.6 -10.6°
Sets 18:18:50 0° 190° (S) 3,678 7.2 -11.0°
